Location: Guferjoch
(46.7462°N, 8.4506°E)
Time: 13:23:10
(UTC+00:00)

Cosmos 1666 Rocket - Pass Details

Date: 14 July 2020
Orbit: 603 x 634 km, 82.5° (Epoch: 06 August)

Event Time Altitude Azimuth Distance (km) Brightness Sun altitude
Exits shadow 00:23:50 33° 254° (WSW) 1,039 4.4 -20.6°
Maximum altitude 00:24:50 38° 285° (WNW) 946 4.5 -20.6°
Drops below altitude 10° 00:28:56 10° 354° (N) 1,977 7.2 -20.4°
Sets 00:31:17 0° 3° (N) 2,882 8.5 -20.3°
